Regional Weather Roundup
Issued by NWS

Home | Current Version | Previous Version | Text Only | Print | Product List | Glossary On
Versions: 1 2 3 4 5 6 7 8 9 10 11 12 13 14 15 16 17 18 19 20 21 22 23 24 25 26 27 28 29 30 31 32 33 34 35 36 37 38 39 40 41 42 43 44 45 46 47 48 49 50
000
ASUS43 KLMK 051610
RWRKY
KENTUCKY REGIONAL WEATHER ROUNDUP
NATIONAL WEATHER SERVICE LOUISVILLE KY
1100 AM EST MON DEC 05 2016

NOTE "FAIR" INDICATES FEW OR NO CLOUDS BELOW 12,000 FEET
WITH NO SIGNIFICANT WEATHER AND/OR OBSTRUCTIONS TO VISIBILITY.

KYZ001>023-026-027-061>063-070>075-051700-
WESTERN AND SOUTH CENTRAL KENTUCKY

CITY           SKY/WX    TMP DP  RH WIND       PRES   REMARKS
PADUCAH        CLOUDY    42  35  76 E13       30.06F
HENDERSON      CLOUDY    39  30  70 E8        30.10F WCI  34
OWENSBORO      CLOUDY    39  34  81 E9        30.11S WCI  33
HOPKINSVILLE   CLOUDY    40  36  87 E10       30.07S WCI  33
BOWLING GREEN  CLOUDY    41  36  82 NE12      30.11R
GLASGOW        CLOUDY    40  40  98 E7        30.10S
$$

KYZ024-025-028>034-038-045-046-053-051700-
NORTH CENTRAL KENTUCKY

CITY           SKY/WX    TMP DP  RH WIND       PRES   REMARKS
LOUISVILLE/SDF CLOUDY    41  31  67 E6        30.14R
LOUISVILLE/LOU NOT AVBL
FORT KNOX      CLOUDY    40  33  75 E7        30.11S WCI  35
$$

KYZ035>037-039>044-047>052-055>060-089>105-051700-
NORTHEAST KENTUCKY

CITY           SKY/WX    TMP DP  RH WIND       PRES   REMARKS
LEXINGTON      CLOUDY    42  33  70 E8        30.12R
COVINGTON      CLOUDY    38  31  76 CALM      30.12R
FRANKFORT      NOT AVBL
$$

KYZ054-064>069-076>088-106>120-051700-
SOUTHEAST KENTUCKY

CITY           SKY/WX    TMP DP  RH WIND       PRES   REMARKS
JACKSON        NOT AVBL
LONDON         NOT AVBL
SOMERSET       CLOUDY    43  39  87 NE7       30.10F
MIDDLESBORO    CLOUDY    47  43  85 CALM      30.09S
MONTICELLO     CLOUDY    44  40  85 VRB5      30.11R
$$





USA.gov is the U.S. government's official web portal to all federal, state and local government web resources and services.